{"data":{"norad_id":57874,"intl_designator":"2023-144L","name":"STARLINK-30447","alt_names":[],"object_type":"PAYLOAD","status":"ACTIVE","operator":null,"country":"US","launch_date":"2023-09-16","launch_site_code":"AFETR","launch_vehicle":null,"mission":null,"orbit_class":"UNKNOWN","rcs_meters":null,"size_class":null,"mass_kg":null,"dimensions":null,"purposes":["comms"],"wikipedia_slug":null,"has_3d_model":false,"image_url":null,"decayed_at":null,"tle_current":{"epoch":"2026-09-20T08:22:55.483392Z","epoch_age_seconds":147662,"freshness":"FRESH","line1":"1 57874U 23144L   26263.34925328  .00000587  00000+0  30861-4 0  9991","line2":"2 57874  43.0014 240.1225 0001064 269.1018  90.9712 15.27576517167704","mean_motion":15.27576517,"eccentricity":0.0001064,"inclination_deg":43.0014,"raan_deg":240.1225,"arg_perigee_deg":269.1018,"mean_anomaly_deg":90.9712,"bstar":3.0861e-5,"rev_number":16770,"period_min":94.266963649586,"perigee_km":482.32949410417,"apogee_km":483.78955672478,"semimajor_km":6861.1965254145,"source":"CELESTRAK","updated_at":"2026-09-21T09:00:33.717945Z"}}}